This is the latest recevied weather packets stored in our database for station/object KF7SOJ. If no packets are shown the sender has not sent any weather packets the latest 1 day(s).
| Time | Temp. | Humidity | Pressure | Rain* | Wind** | Luminosity | Snow |
|---|---|---|---|---|---|---|---|
| 1778002827 | 9.44° C | 37% | 933.4 hPa | 0 mm | 5.36 m/s, 22° | 433 W/m² | - |
| 1778002525 | 8.89° C | 37% | 933.2 hPa | 0 mm | 3.58 m/s, 37° | 1123 W/m² | - |
| 1778002221 | 7.78° C | 42% | 933.3 hPa | 0 mm | 6.71 m/s, 29° | 724 W/m² | - |
| 1778001919 | 7.22° C | 42% | 933.4 hPa | 0 mm | 3.13 m/s, 353° | 194 W/m² | - |
| 1778001615 | 7.22° C | 41% | 933.3 hPa | 0 mm | 5.81 m/s, 11° | 197 W/m² | - |
| 1778001310 | 7.78° C | 40% | 933.3 hPa | 0 mm | 6.71 m/s, 342° | 243 W/m² | - |
| 1778001008 | 7.22° C | 41% | 933.1 hPa | 0 mm | 5.36 m/s, 42° | 190 W/m² | - |
| 1778000704 | 7.78° C | 37% | 933.2 hPa | 0 mm | 4.92 m/s, 341° | 187 W/m² | - |
| 1778000400 | 8.33° C | 41% | 933.2 hPa | 0 mm | 3.13 m/s, 16° | 317 W/m² | - |
| 1778000096 | 8.33° C | 41% | 933.3 hPa | 0 mm | 3.13 m/s, 16° | 317 W/m² | - |
| 1777999791 | 8.89° C | 38% | 933.3 hPa | 0 mm | 2.68 m/s, 4° | 278 W/m² | - |
| 1777999488 | 8.33° C | 42% | 933.3 hPa | 0 mm | 2.68 m/s, 35° | 321 W/m² | - |
| 1777999186 | 8.33° C | 43% | 933.4 hPa | 0 mm | 7.15 m/s, 57° | 932 W/m² | - |
| 1777998884 | 8.33° C | 41% | 933.2 hPa | 0 mm | 5.81 m/s, 35° | 374 W/m² | - |
| 1777998584 | 8.33° C | 41% | 933.4 hPa | 0 mm | 5.81 m/s, 35° | 374 W/m² | - |
| 1777998279 | 8.89° C | 39% | 933.4 hPa | 0 mm | 2.68 m/s, 0° | 872 W/m² | - |
| 1777997976 | 8.89° C | 39% | 933.5 hPa | 0 mm | 2.68 m/s, 0° | 872 W/m² | - |
| 1777997672 | 8.89° C | 39% | 933.5 hPa | 0 mm | 2.68 m/s, 0° | 872 W/m² | - |
| 1777997370 | 8.89° C | 40% | 933.6 hPa | 0 mm | 7.6 m/s, 27° | 796 W/m² | - |
| 1777997068 | 8.89° C | 41% | 933.6 hPa | 0 mm | 3.13 m/s, 15° | 810 W/m² | - |
| 1777996764 | 8.33° C | 41% | 933.5 hPa | 0 mm | 3.58 m/s, 355° | 689 W/m² | - |
| 1777996461 | 7.78° C | 42% | 933.6 hPa | 0 mm | 2.24 m/s, 17° | 685 W/m² | - |
| 1777996158 | 8.33° C | 42% | 933.6 hPa | 0 mm | 5.81 m/s, 27° | 619 W/m² | - |
| 1777995854 | 8.33° C | 42% | 933.6 hPa | 0 mm | 2.68 m/s, 21° | 656 W/m² | - |
| 1777995550 | 7.22° C | 43% | 933.8 hPa | 0 mm | 3.58 m/s, 3° | 460 W/m² | - |
* Rain latest hour (hover to see other rain measurements)
** Current wind speed in m/s (hover to see current wind gust speed)